User: anonymous   Login
Location: Unspecified
(0.0000°N, 0.0000°E)
Time: 07:39:44
(UTC+00:00)
Language:

OPTUS 1C - Orbit

View from above orbital plane
View from above orbital plane
View from above satellite
View from above satellite

Ground track
Ground track

The orbit data is extracted from the following two-line orbital elements,

1 27831U 03028B   15144.61521043 -.00000158  00000-0  00000+0 0  9995
2 27831 000.0665 121.0895 0002322 308.4617 189.8226 01.00273537 43791
Epoch (UTC): 24 May 2015 14:45:54
Eccentricity: 0.0002322
inclination: 0.0665°
perigee height: 35776 km
apogee height: 35795 km
right ascension of ascending node: 121.0895°
argument of perigee: 308.4617°
revolutions per day: 1.00273537
mean anomaly at epoch: 189.8226°
orbit number at epoch: 4379

The dashed part of the orbit path shows where the satellite is in the earth's shadow,  

DLR